Location: Cornospital
(48.0620°N, 3.3837°W)
Time: 20:32:17
(UTC+00:00)

Meteor 1-21 Rocket - Pass Details

Date: 17 June 2021
Orbit: 834 x 906 km, 81.2° (Epoch: 02 August)

Event Time Altitude Azimuth Distance (km) Brightness Sun altitude
Exits shadow 23:33:20 31° 171° (S) 1,456 4.8 -17.9°
Maximum altitude 23:36:04 68° 98° (E) 923 4.3 -18.0°
Drops below altitude 10° 23:41:45 10° 16° (NNE) 2,528 7.7 -18.2°
Sets 23:44:14 0° 14° (NNE) 3,481 8.7 -18.2°
